DW4394 Weather Reports


Display with metric or nautical units.
time (UTC)temp
F
wind
direction
speed
MPH
gust
MPH
rain 1hr
in
rain 24hr
in
rain mn
in
humidity
%
barometer
mb
20260510194614 94 319 3.0 10.0 0.00 0.00 0.00 6 1008.9
20260510193108 94 5 3.0 10.0 0.00 0.00 0.00 6 1009.0
20260510191609 93 9 3.0 12.0 0.00 0.00 0.00 6 1009.2
20260510190100 93 20 3.0 11.0 0.00 0.00 0.00 6 1009.3
20260510190004 93 29 2.0 12.0 0.00 0.00 0.00 6 1009.3
20260510184559 93 103 3.0 11.0 0.00 0.00 0.00 6 1009.5
20260510183102 93 15 4.0 8.0 0.00 0.00 0.00 6 1009.7
20260510181558 93 15 4.0 9.0 0.00 0.00 0.00 6 1009.8
20260510180100 92 273 4.0 11.0 0.00 0.00 0.00 6 1009.8
20260510174601 90 302 3.0 10.0 0.00 0.00 0.00 6 1009.9
20260510173106 90 11 5.0 12.0 0.00 0.00 0.00 6 1009.9
20260510171601 89 52 4.0 12.0 0.00 0.00 0.00 7 1009.8
20260510170108 88 27 6.0 11.0 0.00 0.00 0.00 7 1009.8
20260510164558 88 51 7.0 13.0 0.00 0.00 0.00 7 1009.8
20260510163059 87 330 6.0 11.0 0.00 0.00 0.00 7 1009.6
20260510161559 86 321 3.0 11.0 0.00 0.00 0.00 8 1009.6
20260510160058 85 29 5.0 9.0 0.00 0.00 0.00 9 1009.4
20260510160002 85 355 4.0 9.0 0.00 0.00 0.00 8 1009.4
20260510154559 84 316 4.0 8.0 0.00 0.00 0.00 9 1009.4
20260510153058 83 26 4.0 8.0 0.00 0.00 0.00 9 1009.5
20260510151603 82 346 5.0 9.0 0.00 0.00 0.00 10 1009.6
20260510150059 81 40 2.0 8.0 0.00 0.00 0.00 9 1009.6
20260510144559 81 20 3.0 5.0 0.00 0.00 0.00 10 1009.4
20260510143059 80 13 2.0 6.0 0.00 0.00 0.00 9 1009.1
20260510141604 80 342 2.0 6.0 0.00 0.00 0.00 10 1009.0
20260510140059 79 43 3.0 8.0 0.00 0.00 0.00 10 1008.8
20260510134606 78 355 2.0 8.0 0.00 0.00 0.00 10 1008.6
20260510133116 77 28 1.0 8.0 0.00 0.00 0.00 10 1008.3
20260510131605 77 5 3.0 8.0 0.00 0.00 0.00 10 1008.0
20260510130059 76 19 1.0 7.0 0.00 0.00 0.00 11 1007.8
20260510130001 76 42 1.0 7.0 0.00 0.00 0.00 11 1007.8
20260510124601 77 38 1.0 5.0 0.00 0.00 0.00 10 1007.7
20260510123115 76 16 1.0 4.0 0.00 0.00 0.00 11 1007.6
20260510121559 77 90 1.0 3.0 0.00 0.00 0.00 11 1007.5
20260510120059 77 15 1.0 6.0 0.00 0.00 0.00 11 1007.2
20260510114600 78 5 1.0 4.0 0.00 0.00 0.00 11 1007.3
20260510113100 79 5 1.0 12.0 0.00 0.00 0.00 12 1007.1
20260510111602 79 355 2.0 10.0 0.00 0.00 0.00 12 1006.9
20260510104558 80 61 3.0 8.0 0.00 0.00 0.00 12 1006.6
20260510103100 80 326 2.0 8.0 0.00 0.00 0.00 12 1006.5
20260510101558 80 27 2.0 5.0 0.00 0.00 0.00 12 1006.3
20260510100058 80 288 0.0 4.0 0.00 0.00 0.00 12 1006.2
20260510094559 81 336 1.0 8.0 0.00 0.00 0.00 12 1006.1
20260510093058 81 321 3.0 6.0 0.00 0.00 0.00 12 1005.9
20260510091601 81 234 3.0 6.0 0.00 0.00 0.00 12 1005.7
20260510084559 77 40 2.0 4.0 0.00 0.00 0.00 14 1005.3
20260510083059 77 201 0.0 2.0 0.00 0.00 0.00 13 1005.2
20260510081559 77 128 0.0 3.0 0.00 0.00 0.00 12 1005.1
20260510080059 78 347 0.0 2.0 0.00 0.00 0.00 12 1005.0
20260510080002 78 347 0.0 3.0 0.00 0.00 0.00 12 1005.0
20260510074502 78 351 1.0 4.0 0.00 0.00 0.00 12 1004.9
20260510073003 79 54 1.0 2.0 0.00 0.00 0.00 12 1004.9
20260510071502 80 140 1.0 2.0 0.00 0.00 0.00 12 1004.7
20260510070005 81 165 0.0 2.0 0.00 0.00 0.00 12 1004.6
20260510064603 82 154 0.0 2.0 0.00 0.00 0.00 12 1004.5
20260510064500 82 155 0.0 3.0 0.00 0.00 0.00 12 1004.5
20260510063103 83 152 2.0 5.0 0.00 0.00 0.00 10 1004.2
20260510063002 83 152 3.0 5.0 0.00 0.00 0.00 10 1004.2
20260510061601 84 148 3.0 4.0 0.00 0.00 0.00 11 1004.2
20260510061501 84 155 2.0 4.0 0.00 0.00 0.00 11 1004.2
20260510060006 84 190 1.0 5.0 0.00 0.00 0.00 11 1004.1
20260510054600 83 175 2.0 4.0 0.00 0.00 0.00 11 1004.0
20260510054501 83 142 3.0 4.0 0.00 0.00 0.00 11 1004.0
20260510053001 84 130 0.0 1.0 0.00 0.00 0.00 12 1003.9
20260510051501 85 130 0.0 0.0 0.00 0.00 0.00 11 1003.9
20260510044500 88 135 1.0 3.0 0.00 0.00 0.00 10 1003.9
20260510043002 89 200 0.0 3.0 0.00 0.00 0.00 10 1003.8
20260510041500 89 147 1.0 7.0 0.00 0.00 0.00 9 1003.6
20260510040115 89 116 0.0 7.0 0.00 0.00 0.00 9 1003.4
20260510040004 89 126 1.0 7.0 0.00 0.00 0.00 9 1003.4
20260510034501 89 145 1.0 4.0 0.00 0.00 0.00 10 1003.1
20260510033001 90 234 1.0 2.0 0.00 0.00 0.00 10 1002.9
20260510031506 92 148 0.0 0.0 0.00 0.00 0.00 9 1002.7
20260510030008 92 149 0.0 2.0 0.00 0.00 0.00 8 1002.4
20260510024600 93 168 0.0 2.0 0.00 0.00 0.00 8 1002.2
20260510024502 93 168 0.0 2.0 0.00 0.00 0.00 8 1002.2
20260510023100 94 207 1.0 3.0 0.00 0.00 0.00 8 1002.2
20260510023002 94 206 1.0 3.0 0.00 0.00 0.00 8 1002.2
20260510021501 95 226 2.0 5.0 0.00 0.00 0.00 7 1002.1
20260510020002 96 296 1.0 4.0 0.00 0.00 0.00 7 1002.1
20260510014618 97 113 0.0 3.0 0.00 0.00 0.00 6 1002.0
20260510013103 99 241 0.0 4.0 0.00 0.00 0.00 6 1002.0
20260510011600 100 184 1.0 5.0 0.00 0.00 0.00 6 1001.9
20260510011503 100 165 0.0 8.0 0.00 0.00 0.00 6 1002.0
20260510010100 101 230 2.0 7.0 0.00 0.00 0.00 6 1001.9
20260510004501 102 276 2.0 5.0 0.00 0.00 0.00 5 1002.0
20260510003106 102 273 2.0 7.0 0.00 0.00 0.00 5 1002.0
20260510003002 102 208 1.0 7.0 0.00 0.00 0.00 5 1002.0
20260510001600 101 159 1.0 7.0 0.00 0.00 0.00 5 1002.0
20260510000006 99 121 2.0 9.0 0.00 0.00 0.00 5 1002.1
20260509234607 101 61 3.0 9.0 0.00 0.00 0.00 5 1002.2
20260509233100 100 347 1.0 4.0 0.00 0.00 0.00 6 1002.1
20260509231600 99 167 1.0 9.0 0.00 0.00 0.00 6 1002.3
20260509230003 99 13 2.0 7.0 0.00 0.00 0.00 6 1002.5
20260509224605 100 20 2.0 6.0 0.00 0.00 0.00 6 1002.7
20260509224500 100 266 2.0 6.0 0.00 0.00 0.00 6 1002.7
20260509223001 102 346 2.0 10.0 0.00 0.00 0.00 6 1003.0
20260509221501 101 268 1.0 8.0 0.00 0.00 0.00 6 1003.3
20260509214608 99 13 3.0 9.0 0.00 0.00 0.00 6 1003.8
20260509214500 99 328 4.0 9.0 0.00 0.00 0.00 7 1003.8
20260509213100 100 17 4.0 8.0 0.00 0.00 0.00 6 1004.1
20260509211601 103 159 2.0 8.0 0.00 0.00 0.00 5 1004.2
20260509210117 101 246 2.0 9.0 0.00 0.00 0.00 6 1004.5
20260509204601 100 340 2.0 8.0 0.00 0.00 0.00 7 1004.7
20260509203059 100 55 2.0 5.0 0.00 0.00 0.00 5 1004.9
20260509201604 99 313 3.0 8.0 0.00 0.00 0.00 8 1005.1
20260509200105 98 264 2.0 6.0 0.00 0.00 0.00 8 1005.2